TimeCDT,TemperatureF,Dew PointF,Humidity,Sea Level PressureIn,VisibilityMPH,Wind Direction,Wind SpeedMPH,Gust SpeedMPH,PrecipitationIn,Events,Conditions,WindDirDegrees,DateUTC
12:56 AM,36.0,30.0,79,30.30,10.0,Calm,Calm,-,N/A,,Clear,0,2013-10-13 05:56:00
1:56 AM,34.0,28.9,82,30.34,10.0,Calm,Calm,-,N/A,,Clear,0,2013-10-13 06:56:00
2:56 AM,32.0,28.0,85,30.34,10.0,Calm,Calm,-,N/A,,Clear,0,2013-10-13 07:56:00
3:56 AM,30.9,27.0,85,30.35,10.0,Calm,Calm,-,N/A,,Clear,0,2013-10-13 08:56:00
4:56 AM,33.1,28.0,82,30.36,10.0,Calm,Calm,-,N/A,,Partly Cloudy,0,2013-10-13 09:56:00
5:56 AM,30.0,28.0,92,30.38,10.0,Calm,Calm,-,N/A,,Clear,0,2013-10-13 10:56:00
6:56 AM,30.0,28.0,92,30.40,10.0,Calm,Calm,-,N/A,,Clear,0,2013-10-13 11:56:00
7:56 AM,28.0,25.0,88,30.42,10.0,NNE,3.5,-,N/A,,Partly Cloudy,30,2013-10-13 12:56:00
8:56 AM,36.0,32.0,86,30.44,10.0,Calm,Calm,-,N/A,,Partly Cloudy,0,2013-10-13 13:56:00
9:56 AM,46.0,32.0,58,30.45,10.0,ENE,3.5,-,N/A,,Scattered Clouds,60,2013-10-13 14:56:00
10:56 AM,54.0,32.0,43,30.45,10.0,SE,5.8,-,N/A,,Scattered Clouds,130,2013-10-13 15:56:00
11:56 AM,57.9,30.9,36,30.42,10.0,ESE,8.1,-,N/A,,Scattered Clouds,110,2013-10-13 16:56:00
12:56 PM,61.0,30.0,31,30.40,10.0,SSE,6.9,-,N/A,,Scattered Clouds,150,2013-10-13 17:56:00
1:56 PM,61.0,28.9,30,30.38,10.0,SSE,10.4,-,N/A,,Scattered Clouds,150,2013-10-13 18:56:00
2:56 PM,62.6,28.4,27,30.36,10.0,SSE,6.9,-,N/A,,Partly Cloudy,150,2013-10-13 19:56:00
3:56 PM,64.9,30.0,27,30.35,10.0,SE,6.9,17.3,N/A,,Scattered Clouds,130,2013-10-13 20:56:00
4:56 PM,64.9,30.0,27,30.33,10.0,SE,10.4,-,N/A,,Scattered Clouds,130,2013-10-13 21:56:00
5:56 PM,63.0,30.0,29,30.31,10.0,SE,10.4,-,N/A,,Scattered Clouds,140,2013-10-13 22:56:00
6:56 PM,60.1,30.9,33,30.32,10.0,SE,11.5,-,N/A,,Partly Cloudy,140,2013-10-13 23:56:00
7:56 PM,57.9,30.9,36,30.32,10.0,SE,11.5,-,N/A,,Partly Cloudy,130,2013-10-14 00:56:00
8:56 PM,55.9,30.9,39,30.32,10.0,SE,10.4,-,N/A,,Clear,140,2013-10-14 01:56:00
9:56 PM,54.0,30.9,41,30.32,10.0,SE,11.5,-,N/A,,Clear,140,2013-10-14 02:56:00
10:56 PM,50.0,32.0,50,30.32,10.0,ESE,6.9,-,N/A,,Clear,110,2013-10-14 03:56:00
11:56 PM,50.0,32.0,50,30.31,10.0,ESE,8.1,-,N/A,,Mostly Cloudy,120,2013-10-14 04:56:00